Location: El Portezuelo
(28.4984°N, 16.3589°W)
Time: 22:33:50
(UTC+00:00)

CZ-3 Stage 3 - Pass Details

Date: 20 January 2020
Orbit: 411 x 34779 km, 30.8° (Epoch: 16 February)

Event Time Altitude Azimuth Distance (km) Brightness Sun altitude
Exits shadow 06:32:55 28° 281° (W) 2,143 4.2 -18.7°
Maximum altitude 06:36:23 79° 198° (SSW) 750 2.4 -17.9°
Drops below altitude 10° 06:39:21 10° 111° (ESE) 1,645 5.5 -17.3°
Sets 06:40:44 0° 109° (ESE) 2,363 6.8 -17.0°
